DO7VLR-5 Weather Reports


Display with metric or nautical units.
time (UTC)temp
F
wind
direction
speed
MPH
gust
MPH
rain 1hr
in
rain 24hr
in
rain mn
in
humidity
%
barometer
mb
20260507023017 49 0.0 3.0 0.00 0.01 0.00 87 1011.4
20260507020017 49 0.0 2.0 0.00 0.01 0.00 88 1011.1
20260507013017 49 270 1.0 3.0 0.00 0.01 0.00 87 1011.0
20260507010017 49 248 1.0 3.0 0.00 0.01 0.00 87 1010.8
20260507003016 49 270 1.0 4.0 0.00 0.02 0.00 87 1010.5
20260507000016 50 0 1.0 5.0 0.00 0.02 0.00 87 1010.4
20260506233017 50 0.0 4.0 0.00 0.02 0.00 89 1010.4
20260506230017 50 0 1.0 4.0 0.00 0.02 0.00 88 1010.2
20260506223016 51 0 1.0 6.0 0.00 0.02 0.00 86 1009.9
20260506220016 51 248 1.0 4.0 0.00 0.02 0.02 86 1009.5
20260506213018 51 0 1.0 4.0 0.00 0.02 0.02 86 1009.3
20260506210017 51 0 1.0 3.0 0.00 0.02 0.02 86 1008.9
20260506203017 52 338 1.0 3.0 0.00 0.02 0.02 86 1008.9
20260506200019 52 0 1.0 6.0 0.00 0.02 0.02 85 1008.8
20260506193019 53 338 1.0 7.0 0.00 0.02 0.02 86 1008.3
20260506190018 53 315 1.0 7.0 0.00 0.02 0.02 85 1007.9
20260506183017 54 0 1.0 7.0 0.00 0.03 0.02 84 1007.4
20260506180016 54 0 2.0 7.0 0.00 0.04 0.02 84 1007.2
20260506173017 55 270 2.0 10.0 0.00 0.06 0.02 83 1007.0
20260506170016 56 338 2.0 8.0 0.00 0.06 0.02 82 1006.8
20260506163016 57 0 2.0 8.0 0.00 0.06 0.02 81 1006.9
20260506160016 58 293 2.0 9.0 0.00 0.06 0.02 80 1006.6
20260506153016 57 270 2.0 9.0 0.00 0.06 0.02 83 1006.7
20260506150016 57 180 1.0 5.0 0.01 0.06 0.02 89 1006.6
20260506143016 56 158 2.0 7.0 0.01 0.07 0.02 89 1006.4
20260506140016 57 203 4.0 11.0 0.00 0.07 0.01 86 1006.3
20260506133017 61 180 4.0 14.0 0.00 0.09 0.01 74 1006.2
20260506130016 60 180 5.0 12.0 0.00 0.09 0.01 77 1006.1
20260506123016 58 180 4.0 12.0 0.00 0.11 0.01 82 1006.1
20260506120016 57 180 3.0 11.0 0.00 0.12 0.01 84 1006.2
20260506113015 58 180 4.0 13.0 0.00 0.13 0.01 82 1006.0
20260506110016 59 180 4.0 12.0 0.00 0.13 0.01 80 1006.0
20260506103016 58 203 4.0 12.0 0.00 0.13 0.01 81 1006.1
20260506100017 56 225 3.0 8.0 0.00 0.13 0.01 87 1005.9
20260506093016 55 180 3.0 12.0 0.00 0.13 0.01 88 1006.0
20260506090016 55 203 3.0 14.0 0.00 0.13 0.01 89 1005.8
20260506083015 55 203 4.0 12.0 0.00 0.13 0.01 88 1005.6
20260506073018 54 180 3.0 10.0 0.00 0.13 0.01 89 1005.6
20260506043017 53 203 2.0 6.0 0.00 0.13 0.01 94 1005.4
20260506040016 53 180 3.0 11.0 0.00 0.13 0.01 93 1005.6
20260506033016 54 180 2.0 7.0 0.00 0.13 0.01 94 1005.8
20260506030016 54 180 2.0 8.0 0.00 0.13 0.01 94 1005.9